CAPE
261 664 763 659 411 382 142 71 151 277 456 426 412 566 436 582 527 366 126 9 2 0 0 3 6 3 10 12 3 2 9 5 9 4 11 43 15 1 0 0 0 0 0
477 763 793 601 579 602 130 78 246 142 407 520 518 542 643 682 541 266 62 8 0 0 0 1 5 7 3 15 15 3 0 0 0 0 0 0 18 8 55 74 109 127 2
614 772 768 528 667 505 96 139 123 60 266 427 588 659 790 639 454 148 40 4 1 3 3 6 10 8 6 4 4 0 0 0 0 0 0 0 1 67 3 0 0 90 9
639 770 675 591 669 363 158 125 166 42 89 346 360 599 578 500 162 9 2 5 4 6 7 9 5 34 61 26 27 35 2 0 0 0 0 0 0 0 0 0 1 5 8
688 702 643 567 596 290 283 169 109 2 2 115 303 223 338 99 4 3 5 4 7 3 4 4 71 64 19 31 24 0 0 0 0 0 0 0 0 0 0 0 0 0 4
649 628 613 616 482 225 62 13 8 0 0 2 14 96 67 4 4 4 6 4 4 4 10 51 66 49 24 49 27 6 0 0 0 0 0 0 0 0 0 0 0 0 0
604 654 565 597 449 242 49 35 173 1 0 2 2 4 4 4 6 7 4 3 4 5 52 63 65 44 22 17 17 0 0 0 0 0 0 0 0 0 0 0 0 0 0
698 552 551 389 324 238 4 274 244 9 0 3 6 7 6 6 5 4 3 4 4 33 47 67 67 35 10 1 0 0 0 0 0 0 0 0 0 0 0 0 0 0 0
641 548 461 262 4 3 0 151 277 200 0 0 7 9 8 4 3 5 5 5 26 33 37 40 28 2 0 0 0 0 0 0 0 0 0 0 0 0 0 0 0 0 0
503 550 343 58 7 0 0 0 203 303 0 0 0 3 4 4 1 3 4 4 23 11 6 0 0 0 0 0 0 0 0 0 0 0 0 0 0 0 0 0 0 0 0
329 509 277 66 65 20 0 0 16 480 154 0 0 0 0 0 0 1 0 10 9 0 0 0 0 0 0 0 0 0 0 0 0 0 0 0 0 0 0 0 0 0 0
417 413 280 125 60 77 76 0 0 136 480 72 0 0 0 0 0 0 0 0 0 0 0 0 0 0 0 0 0 0 0 0 0 0 0 0 0 0 0 0 0 0 0
607 282 49 88 121 107 65 58 8 83 294 199 29 0 0 0 0 0 0 0 0 0 0 0 0 0 0 0 0 0 0 0 0 0 0 0 0 0 0 0 4 0 0
284 143 37 0 6 8 51 68 26 52 184 237 61 17 0 0 0 0 0 0 0 0 0 0 0 0 0 0 0 0 0 0 0 0 0 0 0 0 0 0 6 20 50
238 90 8 19 2 22 6 85 132 28 96 252 227 56 12 7 1 3 2 0 0 0 0 0 0 0 0 0 0 0 0 0 0 0 0 0 0 0 0 3 20 27 41
120 8 0 1 0 17 68 44 124 189 65 104 203 169 42 24 31 17 7 0 0 0 0 0 0 0 0 0 0 0 0 0 0 0 0 0 0 0 2 6 24 47 53
1 0 0 0 0 7 118 5 62 173 143 62 139 247 103 48 39 24 8 0 0 0 0 0 0 0 0 0 0 0 0 0 0 0 3 1 5 0 2 11 22 54 43
1 0 0 6 0 8 91 61 1 6 82 104 91 100 113 76 39 25 13 0 0 0 0 0 0 0 0 0 0 0 0 0 5 12 2 13 11 11 19 16 23 47 62
0 9 1 0 20 25 177 35 120 74 36 15 28 51 75 70 36 13 10 0 0 0 0 0 0 0 0 0 0 0 9 9 2 1 5 2 3 0 0 0 12 31 40
37 5 0 1 21 46 30 5 89 79 157 94 20 24 41 42 34 6 0 0 0 0 0 0 3 0 4 2 4 0 0 0 0 0 0 0 0 0 0 0 1 17 31
31 11 1 1 67 91 17 27 33 2 140 194 151 79 46 12 42 26 23 16 26 31 71 88 81 62 22 13 0 0 0 0 0 0 0 0 0 0 0 0 0 0 4
48 24 27 1 82 202 43 35 47 107 183 85 106 109 71 44 52 50 75 92 113 118 130 154 130 77 32 0 0 0 0 0 0 0 0 0 0 0 0 0 0 0 0
355 314 248 136 197 231 195 175 107 98 89 83 56 52 135 101 122 97 77 116 111 163 219 165 80 81 75 1 0 1 2 0 0 0 0 0 0 0 0 0 0 0 0
12 213 365 359 353 302 238 171 107 92 69 63 108 121 45 49 31 58 66 62 38 16 15 9 1 6 1 0 0 0 0 0 0 0 0 0 0 0 0 0 0 0 0
0 0 0 180 255 275 254 181 136 109 82 40 21 33 0 0 0 0 6 0 2 0 0 0 0 0 0 0 0 0 0 0 0 0 0 0 0 0 0 0 0 0 0
0 0 0 0 0 195 187 228 236 173 112 101 38 31 1 0 0 0 0 0 0 0 0 0 0 0 0 0 0 0 0 0 0 0 0 0 0 0 0 0 0 0 0
CIN
-224 -86 -42 -50 -86 -86 -204 -283 -170 -106 -47 -39 -41 -8 -25 -5 -3 -19 -76 -59 0 0 0 0 0 0 0 0 0 0 0 0 0 0 -2 -76 0 0 0 0 0 0 0
-162 -62 -37 -40 -42 -49 -209 -263 -111 -171 -51 -11 -4 -2 -1 0 -8 -46 -127 -93 0 0 0 0 0 -1 -3 0 -16 0 0 0 0 0 0 -1 -1 0 -125 -240 -177 -120 0
-105 -55 -31 -49 -21 -48 -237 -180 -186 -231 -79 -20 -1 0 0 -1 -22 -91 -174 -40 0 0 0 0 0 0 0 0 -5 0 0 0 0 0 0 0 -2 -6 0 0 -1 -134 0
-72 -33 -31 -35 -15 -54 -146 -190 -150 -254 -177 -34 -14 0 0 -10 -90 -29 0 0 0 0 0 0 0 -82 -121 -38 -43 -35 -20 0 0 0 0 0 0 0 0 0 0 0 0
-49 -23 -16 -20 -10 -52 -52 -121 -180 -146 -134 -105 -22 -28 -14 -108 -15 0 0 0 0 0 0 0 -206 -89 -75 -63 -75 0 0 0 0 0 0 0 0 0 0 0 0 0 0
-39 -12 -7 -3 -8 -53 -165 -286 -125 0 0 -131 -212 -79 -108 -4 0 0 0 0 0 0 -22 -55 -47 -57 -89 -61 -82 -95 0 0 0 0 0 0 0 0 0 0 0 0 0
-22 -8 -3 -2 0 -15 -117 -168 -45 -10 0 0 0 0 0 0 0 0 0 0 0 -2 -68 -59 -54 -64 -102 -116 -107 0 0 0 0 0 0 0 0 0 0 0 0 0 0
-2 -4 -1 -4 -3 -4 -97 -6 -7 -95 0 0 0 0 0 0 0 0 0 0 0 -101 -92 -74 -63 -94 -147 -25 0 0 0 0 0 0 0 0 0 0 0 0 0 0 0
-1 -2 -3 -7 -19 -18 0 -15 -3 -9 0 0 -1 0 -3 -1 0 0 0 0 -115 -98 -86 -88 -99 -26 0 0 0 0 0 0 0 0 0 0 0 0 0 0 0 0 0
-6 -9 -7 -54 -63 0 0 0 -12 -1 0 0 0 -1 -2 -1 0 0 0 0 -113 -133 -145 0 0 0 0 0 0 0 0 0 0 0 0 0 0 0 0 0 0 0 0
-10 -13 -23 -46 -30 -58 0 0 -18 -4 -37 0 0 0 0 0 -1 -1 0 -147 -121 0 0 0 0 0 0 0 0 0 0 0 0 0 0 0 0 0 0 0 0 0 0
-1 -8 -35 -47 -56 -49 -48 0 0 -41 -10 -72 0 0 0 0 0 0 0 0 0 0 0 0 0 0 0 0 0 0 0 0 0 0 0 0 0 0 0 0 0 0 0
-2 -12 -53 -32 -31 -69 -122 -128 -171 -81 -28 -54 -154 0 0 0 0 0 0 0 0 0 0 0 0 0 0 0 0 0 0 0 0 0 0 0 0 0 0 0 -8 0 0
-22 -138 -112 0 -46 -106 -92 -148 -180 -151 -55 -56 -130 -210 0 0 0 0 0 0 0 0 0 0 0 0 0 0 0 0 0 0 0 0 0 0 0 0 0 0 -17 -13 -9
-43 -186 -107 -174 -43 -182 -93 -70 -98 -216 -141 -57 -63 -154 -251 -263 -111 -273 -96 0 0 0 0 0 0 0 0 0 0 0 0 0 0 0 0 0 0 0 0 -19 -19 -17 -11
-100 -261 0 -110 0 -229 -165 -155 -64 -103 -205 -146 -84 -91 -192 -215 -197 -224 -254 0 0 0 0 0 0 0 0 0 0 0 0 0 0 0 0 0 0 0 -34 -35 -32 -24 -10
-193 0 0 0 0 -184 -76 -152 -128 -43 -132 -234 -131 -72 -141 -179 -183 -194 -228 0 0 0 0 0 0 0 0 0 0 0 0 0 0 0 -22 -41 -50 -3 -56 -45 -27 -17 -13
-198 0 0 -199 0 -139 -86 -107 -24 -210 -103 -115 -181 -170 -145 -173 -204 -222 -229 0 0 0 0 0 0 0 0 0 0 0 0 0 -23 -23 -20 -22 -27 -47 -41 -43 -35 -31 -30
0 -217 -160 0 -197 -131 -42 -110 -80 -77 -163 -195 -170 -159 -154 -183 -227 -260 -249 0 0 0 0 0 0 0 0 0 0 -3 -25 -19 -15 -12 -23 -19 -24 0 0 0 -38 -41 -41
-184 -210 0 -42 -156 -61 -95 -103 -76 -125 -78 -100 -168 -191 -169 -169 -188 -245 0 0 0 0 0 0 -136 0 -33 -9 -13 0 0 0 0 0 0 0 0 0 0 0 -9 -68 -35
-176 -188 -205 -56 -124 -52 -94 -93 -87 -17 -80 -46 -75 -117 -170 -163 -121 -156 -170 -195 -174 -130 -79 -73 -75 -66 -81 -79 -1 0 0 0 0 0 0 0 0 0 0 0 0 -1 -134
-175 -211 -200 -91 -102 -63 -154 -167 -114 -54 -36 -48 -90 -103 -99 -116 -94 -94 -82 -81 -83 -75 -69 -55 -50 -56 -86 0 0 0 0 0 0 0 0 0 0 0 0 0 0 0 0
-100 -102 -128 -166 -101 -58 -99 -56 -68 -52 -51 -54 -79 -143 -97 -60 -57 -89 -96 -85 -80 -71 -37 -42 -63 -61 -44 -21 0 -1 0 0 0 0 0 0 0 0 0 0 0 0 0
-28 -122 -85 -60 -34 -40 -40 -51 -46 -57 -68 -75 -109 -123 -126 -141 -136 -116 -65 -73 -63 -98 -102 -61 -34 -142 -25 -8 0 0 0 -1 0 0 0 0 0 0 0 0 0 0 0
0 0 0 -111 -67 -55 -45 -26 -34 -19 -68 -123 -100 -100 0 0 0 0 -137 0 -108 0 0 0 0 0 0 0 0 0 0 0 0 0 0 0 0 0 0 0 0 0 0
0 0 0 0 0 -84 -66 -58 -59 -40 -57 -66 -110 -102 -140 0 0 0 0 0 0 0 0 0 0 0 0 0 0 0 0 0 0 0 0 0 0 0 0 0 0 0 0
Wind_Speed
6 5 7 7 7 8 9 10 10 10 12 16 18 17 18 18 18 19 18 19 19 20 21 22 22 23 23 23 23 23 23 24 24 24 24 25 28 29 29 29 29 28 28
7 6 7 5 5 7 8 9 9 9 11 16 18 19 18 19 19 18 18 18 19 20 22 22 23 22 22 22 22 22 22 23 23 24 24 26 28 29 29 29 29 27 28
7 6 6 6 4 6 7 8 8 8 10 15 17 19 18 19 19 18 17 17 19 21 22 22 22 22 21 21 21 22 22 23 23 23 23 24 26 27 28 28 29 30 29
7 5 4 4 4 5 7 8 8 8 9 11 16 18 19 18 17 16 17 18 19 20 21 21 21 21 20 20 20 22 23 23 23 23 24 25 26 26 27 28 28 28 29
7 5 3 4 5 5 7 6 7 6 8 9 10 13 14 14 14 16 17 18 19 19 20 20 20 19 19 20 21 21 22 22 23 24 25 26 26 27 27 27 27 27 27
8 6 4 4 4 5 6 6 6 5 5 7 7 9 11 13 15 16 16 17 17 18 19 19 18 18 18 18 19 19 20 21 22 23 24 25 26 26 27 27 27 26 26
8 6 5 4 2 3 5 6 7 6 5 5 7 8 11 13 14 15 15 15 16 17 17 17 17 17 17 16 17 18 19 19 21 23 24 24 25 25 26 26 26 26 26
8 7 6 4 2 2 4 3 4 5 6 6 7 8 11 12 13 14 14 14 15 15 15 15 15 15 14 15 16 17 18 19 20 21 22 23 23 24 25 25 25 26 25
10 8 6 5 3 3 3 3 1 5 6 6 6 7 7 10 11 12 12 12 13 13 12 12 12 13 13 14 15 16 17 18 19 20 21 21 22 23 23 24 24 24 24
12 9 7 5 4 5 5 6 4 2 4 5 5 5 6 7 8 9 10 10 10 10 10 11 11 12 13 14 15 15 16 17 18 18 19 19 20 21 22 22 23 23 23
12 10 8 7 6 5 6 8 7 2 2 3 4 6 6 5 6 6 7 8 8 9 10 11 12 13 14 15 16 16 16 17 18 18 16 17 17 18 20 20 21 21 21
15 12 9 8 7 7 8 8 10 8 3 1 1 3 4 5 5 6 7 8 8 9 10 12 13 14 15 16 17 17 16 18 19 18 17 15 15 16 17 18 19 19 19
17 13 10 11 12 11 11 11 11 12 7 5 1 1 2 3 4 6 7 9 10 11 12 13 14 15 16 16 17 18 18 18 19 19 18 16 14 15 16 17 17 17 17
20 13 11 9 11 15 16 15 13 14 12 8 6 4 3 4 5 7 8 10 11 12 14 15 15 15 15 17 18 19 19 19 19 19 19 18 16 14 15 17 17 16 15
24 14 11 11 13 17 20 20 20 18 15 14 11 9 6 6 6 8 9 11 11 12 12 13 15 16 17 18 18 19 20 20 20 20 20 19 17 15 14 15 16 16 15
18 18 13 18 18 21 24 25 25 24 20 19 17 13 11 10 10 10 11 11 11 11 12 13 14 16 17 19 20 20 20 21 21 21 20 21 18 16 15 15 14 14 15
16 16 18 25 27 24 23 25 26 26 26 22 21 18 14 14 14 14 12 13 13 12 13 14 15 16 17 18 20 20 21 21 21 21 21 21 19 19 18 16 13 12 17
7 6 12 16 18 25 22 25 25 26 26 25 24 21 17 16 16 16 16 15 16 14 13 13 14 16 18 19 21 22 22 23 22 22 21 22 23 21 20 19 16 14 15
7 14 19 20 17 23 26 23 27 27 28 28 25 22 21 20 20 19 16 16 14 13 13 13 14 16 18 20 22 25 25 25 25 26 27 26 25 23 21 19 18 14 14
7 11 9 14 18 6 24 26 31 31 30 26 29 29 24 21 19 16 16 15 13 13 13 15 16 16 19 21 23 25 25 27 28 30 29 28 27 24 22 19 17 15 14
9 10 10 8 15 5 9 16 25 28 31 30 30 23 25 22 15 13 15 14 13 12 14 16 19 20 21 22 24 26 27 29 30 29 27 27 26 24 21 18 15 14 15
12 10 10 10 11 9 6 8 25 19 23 30 31 23 21 20 19 16 17 15 13 14 16 17 18 21 22 22 25 27 28 29 24 23 25 25 26 23 20 17 15 14 14
13 10 8 11 15 13 12 11 18 27 24 24 23 26 21 19 18 13 14 14 16 17 18 19 19 21 25 24 25 26 29 28 29 26 25 26 25 23 20 18 16 15 16
11 10 9 10 12 12 12 12 8 32 18 9 12 21 20 15 16 16 17 15 19 22 20 20 21 23 24 27 26 25 25 27 31 33 26 25 25 24 21 19 17 17 17
17 15 12 12 13 13 12 10 11 15 19 19 22 22 19 16 14 13 11 11 16 19 21 22 23 23 23 25 26 26 27 27 26 28 32 30 27 25 22 19 18 17 18
25 23 16 14 18 18 15 13 12 13 15 19 18 14 15 16 15 13 11 13 16 17 16 18 20 22 24 24 24 25 27 29 28 28 29 31 30 25 23 20 18 17 17
Wind_Direction
214 149 117 98 79 65 53 53 47 41 46 74 86 89 90 88 86 83 74 68 66 61 64 65 61 62 59 53 47 41 38 42 42 38 31 37 49 51 51 51 51 50 45
153 147 124 102 81 68 55 61 51 48 45 76 88 93 92 91 87 82 73 69 64 67 69 69 68 63 59 54 49 44 38 41 40 37 34 34 53 48 49 40 34 53 46
164 156 129 107 82 65 59 63 61 58 48 68 88 93 92 91 86 78 71 67 70 73 73 71 68 62 57 52 47 49 43 40 41 36 32 33 37 38 42 37 34 39 41
168 170 145 114 90 73 71 67 71 69 61 59 78 88 90 87 79 71 70 72 74 75 74 71 67 60 54 51 44 48 49 44 41 38 37 37 37 38 37 39 39 38 37
185 183 159 125 103 82 83 73 70 73 70 67 72 77 79 73 70 75 75 76 75 75 76 72 67 56 49 51 55 44 43 42 40 41 42 41 42 41 41 43 42 41 38
196 198 171 136 109 93 89 82 75 75 73 74 70 71 70 76 76 77 76 75 75 76 77 71 64 54 46 46 46 42 39 38 36 37 39 41 41 40 40 41 41 42 40
202 200 196 158 129 108 102 92 84 74 75 72 74 74 78 79 80 77 73 73 74 73 72 67 61 51 43 35 36 38 36 32 34 37 38 39 40 39 39 40 40 39 40
199 201 203 192 186 143 130 108 89 76 74 75 77 80 82 82 81 78 73 71 69 68 67 65 57 43 31 24 21 28 37 35 33 33 34 37 39 38 38 40 39 38 38
214 205 208 220 224 213 200 227 138 89 76 76 75 79 74 78 77 74 69 65 62 58 52 46 36 26 13 11 14 18 24 30 29 31 35 39 40 37 37 38 38 37 36
213 209 210 219 221 231 230 228 239 123 85 76 77 74 72 66 67 65 59 50 43 39 31 22 9 351 348 354 359 4 13 17 20 28 34 38 40 35 35 35 36 35 34
220 214 216 216 221 229 235 233 239 235 123 84 73 78 72 58 44 40 38 35 26 20 9 1 349 338 333 333 341 355 5 4 5 15 35 38 38 36 33 32 32 32 30
222 223 220 216 219 232 241 239 238 242 234 225 64 65 57 48 39 26 20 18 12 357 348 341 332 325 324 326 328 340 355 355 357 4 18 29 35 34 30 29 28 27 28
219 224 229 231 233 237 243 242 238 240 244 249 261 349 351 346 0 359 348 342 341 338 333 326 325 321 322 324 325 329 339 347 352 358 5 17 28 27 23 22 24 25 24
220 209 226 241 250 248 247 243 240 240 245 250 258 278 305 312 323 331 335 331 327 327 321 318 320 326 326 327 329 329 337 344 347 349 352 359 11 19 17 12 15 18 18
227 210 225 246 255 252 248 244 240 244 247 252 260 269 287 297 313 319 322 324 327 328 332 329 326 324 324 323 328 334 335 336 340 345 347 352 359 6 8 8 8 8 13
226 230 231 253 257 259 247 243 244 243 248 251 258 266 274 287 296 306 312 316 322 330 330 332 329 325 325 325 327 333 335 337 339 342 346 346 350 356 358 359 3 5 5
229 251 236 262 257 252 250 248 247 247 244 251 256 263 273 282 290 298 305 307 309 317 321 322 325 328 329 330 329 331 335 338 341 341 341 344 349 348 349 353 357 2 2
214 238 233 249 253 252 252 250 252 255 253 254 257 264 271 279 285 290 293 298 299 304 314 320 323 323 325 327 326 327 331 333 335 339 341 340 339 342 342 344 347 352 359
238 248 245 249 267 256 246 256 258 260 257 257 262 266 271 276 281 284 287 291 297 300 307 315 320 323 324 325 326 323 324 327 328 328 327 330 333 335 339 341 345 350 357
227 258 243 261 255 273 243 260 256 265 261 261 261 262 269 275 280 283 283 285 290 295 301 307 312 318 320 323 324 324 325 325 325 324 325 327 328 332 333 335 341 351 357
245 236 218 253 260 268 269 254 254 268 259 259 262 269 268 274 276 279 280 282 284 289 298 303 307 311 315 321 322 324 325 323 323 326 332 334 336 339 341 341 348 354 356
255 226 225 218 243 197 217 214 263 269 274 268 259 268 275 275 276 278 275 276 278 286 293 301 307 311 316 321 320 323 325 329 338 342 340 340 340 345 348 350 352 354 356
260 240 226 204 200 207 208 193 272 269 276 275 273 262 272 272 276 278 276 275 283 289 290 297 307 310 311 319 321 320 320 323 326 333 334 336 338 342 346 348 348 349 348
278 268 234 225 217 216 219 215 236 264 273 246 276 275 273 272 281 286 282 283 291 294 300 301 306 308 311 312 319 323 321 319 320 319 331 334 338 338 340 339 339 340 341
284 286 285 278 278 274 275 263 233 226 285 290 292 280 275 287 288 294 298 302 306 302 294 298 305 311 315 316 319 322 322 323 322 318 319 322 328 332 334 333 333 334 335
278 277 287 291 287 285 286 285 281 281 291 292 291 295 292 297 297 305 310 310 308 305 309 314 323 322 321 323 325 324 321 321 321 320 319 320 320 324 328 330 330 331 334